| time (UTC) | temp F | wind direction | speed knots | gust knots | rain 1hr in | rain 24hr in | rain mn in | humidity % | barometer mb |
| 20260505041501 | 67 | 236 | 11.3 | 20.0 | 0.00 | 0.00 | 0.00 | 62 | 1002.2 |
| 20260505034503 | 67 | 225 | 8.7 | 12.2 | 0.00 | 0.00 | 0.00 | 62 | 1002.2 |
| 20260505033003 | 67 | 221 | 10.4 | 13.9 | 0.00 | 0.00 | 0.00 | 61 | 1002.2 |
| 20260505031502 | 67 | 234 | 9.6 | 13.9 | 0.00 | 0.00 | 0.00 | 61 | 1002.4 |
| 20260505030005 | 67 | 228 | 9.6 | 13.0 | 0.00 | 0.00 | 0.00 | 62 | 1002.5 |
| 20260505024502 | 67 | 221 | 7.8 | 11.3 | 0.00 | 0.00 | 0.00 | 63 | 1002.6 |
| 20260505023002 | 67 | 219 | 7.8 | 11.3 | 0.00 | 0.00 | 0.00 | 64 | 1002.7 |
| 20260505021502 | 67 | 228 | 8.7 | 13.0 | 0.00 | 0.00 | 0.00 | 63 | 1002.6 |
| 20260505020006 | 67 | 230 | 7.8 | 11.3 | 0.00 | 0.00 | 0.00 | 63 | 1002.7 |
| 20260505014502 | 68 | 231 | 7.0 | 9.6 | 0.00 | 0.00 | 0.00 | 62 | 1002.5 |
| 20260505013003 | 68 | 220 | 7.0 | 10.4 | 0.00 | 0.00 | 0.00 | 60 | 1002.3 |
| 20260505010004 | 69 | 215 | 6.1 | 8.7 | 0.00 | 0.00 | 0.00 | 58 | 1002.1 |
| 20260505004501 | 70 | 211 | 7.8 | 12.2 | 0.00 | 0.00 | 0.00 | 57 | 1001.9 |
| 20260505003002 | 71 | 219 | 10.4 | 15.6 | 0.00 | 0.00 | 0.00 | 54 | 1001.6 |
| 20260505001502 | 71 | 238 | 11.3 | 15.6 | 0.00 | 0.00 | 0.00 | 53 | 1001.6 |
| 20260505000004 | 72 | 240 | 12.2 | 17.4 | 0.00 | 0.00 | 0.00 | 52 | 1001.6 |
| 20260504234502 | 73 | 235 | 13.9 | 21.7 | 0.00 | 0.00 | 0.00 | 50 | 1001.8 |
| 20260504233002 | 73 | 245 | 12.2 | 16.5 | 0.00 | 0.00 | 0.00 | 53 | 1002.1 |
| 20260504231501 | 73 | 243 | 13.0 | 23.5 | 0.00 | 0.00 | 0.00 | 51 | 1002.4 |
| 20260504230005 | 73 | 230 | 13.9 | 20.0 | 0.00 | 0.00 | 0.00 | 58 | 1002.6 |
| 20260504223001 | 73 | 197 | 10.4 | 15.6 | 0.00 | 0.00 | 0.00 | 62 | 1002.7 |
| 20260504221501 | 72 | 229 | 11.3 | 15.6 | 0.00 | 0.00 | 0.00 | 64 | 1003.0 |
| 20260504220004 | 72 | 238 | 11.3 | 18.2 | 0.00 | 0.00 | 0.00 | 63 | 1003.0 |
| 20260504214501 | 71 | 261 | 14.8 | 20.9 | 0.00 | 0.01 | 0.00 | 61 | 1003.1 |
| 20260504213002 | 73 | 203 | 16.5 | 22.6 | 0.00 | 0.01 | 0.00 | 57 | 1003.2 |
| 20260504211501 | 72 | 224 | 17.4 | 24.3 | 0.00 | 0.01 | 0.00 | 57 | 1003.5 |
| 20260504210005 | 71 | 250 | 18.2 | 26.9 | 0.00 | 0.01 | 0.00 | 56 | 1003.7 |
| 20260504204506 | 71 | 257 | 15.6 | 20.9 | 0.00 | 0.01 | 0.00 | 57 | 1003.6 |
| 20260504203001 | 72 | 258 | 16.5 | 21.7 | 0.00 | 0.01 | 0.00 | 55 | 1003.6 |
| 20260504201502 | 72 | 257 | 15.6 | 23.5 | 0.00 | 0.01 | 0.00 | 52 | 1003.8 |
| 20260504194501 | 72 | 253 | 14.8 | 23.5 | 0.00 | 0.03 | 0.00 | 55 | 1003.8 |
| 20260504193002 | 72 | 250 | 14.8 | 20.9 | 0.00 | 0.03 | 0.00 | 56 | 1004.3 |
| 20260504191502 | 71 | 244 | 17.4 | 24.3 | 0.00 | 0.03 | 0.00 | 56 | 1004.3 |
| 20260504190004 | 72 | 259 | 15.6 | 26.1 | 0.00 | 0.03 | 0.00 | 56 | 1004.4 |
| 20260504184500 | 72 | 258 | 17.4 | 25.2 | 0.00 | 0.07 | 0.00 | 56 | 1004.7 |
| 20260504183000 | 73 | 247 | 18.2 | 26.9 | 0.00 | 0.07 | 0.00 | 53 | 1004.6 |
| 20260504181503 | 73 | 243 | 18.2 | 26.9 | 0.00 | 0.07 | 0.00 | 54 | 1004.3 |
| 20260504180004 | 74 | 245 | 18.2 | 26.1 | 0.00 | 0.07 | 0.00 | 53 | 1004.2 |
| 20260504174504 | 73 | 265 | 17.4 | 24.3 | 0.00 | 0.07 | 0.00 | 55 | 1004.4 |
| 20260504173002 | 72 | 232 | 16.5 | 25.2 | 0.00 | 0.07 | 0.00 | 56 | 1004.5 |
| 20260504081500 | 51 | 225 | 6.1 | 9.6 | 0.00 | 0.07 | 0.00 | 75 | 1007.4 |
| 20260504050004 | 54 | 220 | 6.1 | 9.6 | 0.00 | 0.07 | 0.00 | 71 | 1008.9 |
| 20260504044502 | 53 | 222 | 6.1 | 9.6 | 0.00 | 0.07 | 0.00 | 71 | 1008.9 |
| 20260504043001 | 53 | 212 | 6.1 | 9.6 | 0.00 | 0.07 | 0.00 | 71 | 1009.1 |